FW5799 Weather Reports


Display with metric or nautical units.
time (UTC)temp
F
wind
direction
speed
MPH
gust
MPH
rain 1hr
in
rain 24hr
in
rain mn
in
humidity
%
barometer
mb
20201026223145 49 0 1.0 6.0 0.00 0.01 0.01 90 1001.7
20201026222559 49 0 1.0 6.0 0.00 0.01 0.01 90 1001.7
20201026222103 49 0 1.0 6.0 0.00 0.01 0.01 89 1001.7
20201026221650 49 190 2.0 6.0 0.00 0.01 0.01 89 1001.6
20201026221103 49 0 3.0 7.0 0.00 0.01 0.01 89 1001.6
20201026220558 49 193 2.0 8.0 0.00 0.01 0.01 89 1001.6
20201026220146 49 199 3.0 9.0 0.00 0.01 0.01 89 1001.6
20201026215611 49 178 3.0 9.0 0.00 0.01 0.01 88 1001.5
20201026215100 49 181 2.0 5.0 0.00 0.01 0.01 88 1001.4
20201026214638 49 164 1.0 8.0 0.00 0.01 0.01 88 1001.6
20201026214110 49 173 2.0 8.0 0.00 0.01 0.01 88 1001.5
20201026213601 49 326 2.0 8.0 0.00 0.01 0.01 88 1001.4
20201026213210 49 186 2.0 8.0 0.00 0.01 0.01 88 1001.5
20201026212558 49 199 2.0 6.0 0.00 0.01 0.01 88 1001.4
20201026212104 49 186 1.0 5.0 0.00 0.01 0.01 88 1001.3
20201026211731 49 217 1.0 5.0 0.00 0.01 0.01 87 1001.3
20201026211103 49 205 2.0 10.0 0.00 0.01 0.01 87 1001.5
20201026210606 49 183 3.0 10.0 0.00 0.01 0.01 87 1001.3
20201026210246 49 178 3.0 9.0 0.00 0.01 0.01 87 1001.3
20201026205557 50 132 2.0 6.0 0.00 0.01 0.01 87 1001.4
20201026205103 50 309 1.0 6.0 0.00 0.01 0.01 87 1001.5
20201026204752 50 147 2.0 7.0 0.00 0.01 0.01 87 1001.4
20201026204057 49 193 2.0 8.0 0.00 0.01 0.01 87 1001.3
20201026203559 50 190 3.0 8.0 0.00 0.01 0.01 86 1001.3
20201026203141 49 125 2.0 7.0 0.00 0.01 0.01 87 1001.2
20201026202607 49 184 1.0 9.0 0.00 0.01 0.01 87 1001.3
20201026202101 49 160 3.0 9.0 0.00 0.01 0.01 86 1001.2
20201026201711 49 150 2.0 9.0 0.00 0.01 0.01 86 1001.2
20201026201114 49 171 2.0 6.0 0.00 0.01 0.01 87 1001.2
20201026200558 49 186 2.0 6.0 0.00 0.01 0.01 87 1001.1
20201026200133 49 189 2.0 6.0 0.00 0.01 0.01 87 1001.1
20201026195603 49 171 1.0 7.0 0.00 0.01 0.01 87 1001.0
20201026195059 49 202 1.0 7.0 0.00 0.01 0.01 87 1001.0
20201026194717 49 198 2.0 8.0 0.00 0.01 0.01 87 1000.9
20201026194106 49 234 2.0 8.0 0.00 0.01 0.01 87 1000.9
20201026193602 49 182 2.0 6.0 0.00 0.01 0.01 87 1000.8
20201026193122 49 167 1.0 8.0 0.00 0.01 0.01 87 1000.8
20201026192602 49 180 1.0 8.0 0.00 0.01 0.01 87 1000.8
20201026192059 49 182 2.0 5.0 0.00 0.01 0.01 87 1000.8
20201026191630 49 0 2.0 7.0 0.00 0.01 0.01 87 1000.8
20201026191106 49 185 2.0 7.0 0.00 0.01 0.01 87 1000.7
20201026190647 49 144 3.0 7.0 0.00 0.01 0.01 86 1000.7
20201026190140 49 188 2.0 7.0 0.00 0.01 0.01 86 1000.7
20201026185556 49 184 1.0 7.0 0.00 0.01 0.01 86 1000.7
20201026185108 49 169 1.0 7.0 0.00 0.01 0.01 86 1000.7
20201026184714 49 169 1.0 7.0 0.00 0.01 0.01 86 1000.8
20201026184130 49 205 2.0 6.0 0.00 0.01 0.01 86 1000.8
20201026183606 50 181 2.0 9.0 0.00 0.01 0.01 86 1000.8
20201026183309 50 202 3.0 9.0 0.00 0.01 0.01 86 1001.0
20201026182556 50 263 2.0 8.0 0.00 0.01 0.01 86 1000.8
20201026182101 50 184 2.0 7.0 0.00 0.01 0.01 86 1000.8
20201026181755 50 198 2.0 6.0 0.00 0.01 0.01 86 1000.8
20201026181058 50 182 1.0 6.0 0.00 0.01 0.01 86 1000.8
20201026180606 50 219 2.0 6.0 0.00 0.01 0.01 86 1000.9
20201026180300 50 119 1.0 5.0 0.00 0.01 0.01 86 1000.8
20201026175607 50 198 2.0 5.0 0.00 0.01 0.01 86 1000.8
20201026175058 50 207 2.0 5.0 0.00 0.01 0.01 86 1000.8
20201026174650 50 191 1.0 5.0 0.00 0.01 0.01 86 1000.7
20201026174100 50 194 1.0 6.0 0.00 0.01 0.01 86 1000.7
20201026173605 50 192 2.0 6.0 0.00 0.01 0.01 86 1000.7
20201026173212 50 178 2.0 7.0 0.00 0.01 0.01 86 1000.6
20201026172600 50 173 3.0 8.0 0.00 0.01 0.01 86 1000.5
20201026172112 50 262 1.0 8.0 0.00 0.01 0.01 86 1000.5
20201026171714 50 175 1.0 8.0 0.00 0.01 0.01 87 1000.5
20201026171131 50 211 2.0 8.0 0.00 0.01 0.01 87 1000.4
20201026170609 50 184 1.0 8.0 0.00 0.01 0.01 88 1000.5
20201026170306 50 220 3.0 8.0 0.00 0.01 0.01 87 1000.3
20201026165610 50 0 1.0 7.0 0.00 0.01 0.01 88 1000.3
20201026165059 50 204 1.0 5.0 0.00 0.01 0.01 87 1000.3
20201026164735 50 0 1.0 6.0 0.00 0.01 0.01 88 1000.3
20201026164113 50 208 1.0 6.0 0.00 0.01 0.01 88 1000.3
20201026163601 50 159 1.0 5.0 0.00 0.01 0.01 88 1000.4
20201026163224 50 140 1.0 5.0 0.00 0.01 0.01 88 1000.3
20201026162608 50 197 1.0 5.0 0.00 0.01 0.01 88 1000.4
20201026162131 50 193 1.0 5.0 0.00 0.01 0.01 89 1000.4
20201026161700 50 199 1.0 4.0 0.00 0.01 0.01 89 1000.5
20201026161059 50 186 0.0 3.0 0.00 0.01 0.01 90 1000.5
20201026160558 50 187 0.0 4.0 0.00 0.01 0.01 89 1000.5
20201026160137 50 0 0.0 5.0 0.00 0.01 0.01 88 1000.5
20201026155602 51 194 1.0 5.0 0.00 0.01 0.01 88 1000.5
20201026155057 51 198 1.0 4.0 0.00 0.01 0.01 86 1000.5
20201026154707 51 0 0.0 4.0 0.00 0.01 0.01 86 1000.6
20201026154059 51 151 1.0 7.0 0.00 0.01 0.01 84 1000.6
20201026153555 52 206 1.0 7.0 0.00 0.01 0.01 82 1000.4
20201026153406 52 0 2.0 6.0 0.00 0.01 0.01 82 1000.4
20201026152559 52 208 1.0 6.0 0.00 0.01 0.01 81 1000.4
20201026152110 52 200 1.0 6.0 0.00 0.01 0.01 82 1000.5
20201026151709 52 222 1.0 6.0 0.00 0.01 0.01 81 1000.3
20201026151058 52 186 1.0 6.0 0.00 0.01 0.01 81 1000.3
20201026150600 52 174 2.0 6.0 0.00 0.01 0.01 80 1000.3
20201026150318 52 171 1.0 5.0 0.00 0.01 0.01 81 1000.3
20201026145604 52 214 1.0 7.0 0.00 0.01 0.01 80 1000.3
20201026145058 52 193 2.0 7.0 0.00 0.01 0.01 80 1000.4
20201026144656 52 192 2.0 7.0 0.00 0.01 0.01 81 1000.4
20201026144110 52 202 1.0 7.0 0.00 0.01 0.01 82 1000.3
20201026143616 52 193 2.0 7.0 0.00 0.01 0.01 82 1000.4
20201026143148 52 180 1.0 6.0 0.00 0.01 0.01 82 1000.4
20201026142614 52 184 1.0 6.0 0.00 0.01 0.01 83 1000.3
20201026142059 52 197 1.0 5.0 0.00 0.01 0.01 83 1000.2
20201026141708 51 185 1.0 5.0 0.00 0.01 0.01 84 1000.3
20201026141057 51 182 1.0 5.0 0.00 0.01 0.01 83 1000.4
20201026140600 51 0 2.0 5.0 0.00 0.01 0.01 82 1000.3
20201026140137 52 185 0.0 3.0 0.00 0.01 0.01 82 1000.3
20201026135604 52 194 1.0 5.0 0.00 0.01 0.01 81 1000.1
20201026135112 52 0 1.0 5.0 0.00 0.01 0.01 81 1000.2
20201026134649 52 0 2.0 4.0 0.00 0.01 0.01 80 1000.1
20201026134058 52 180 1.0 4.0 0.00 0.01 0.01 80 1000.2
20201026133605 52 192 1.0 5.0 0.00 0.01 0.01 80 1000.2
20201026133158 52 205 1.0 7.0 0.00 0.01 0.01 79 1000.2
20201026132611 52 188 2.0 7.0 0.00 0.01 0.01 79 1000.2
20201026132107 52 308 1.0 5.0 0.00 0.01 0.01 79 1000.2
20201026131721 52 185 0.0 5.0 0.00 0.01 0.01 79 1000.1
20201026131126 52 197 1.0 9.0 0.00 0.01 0.01 78 1000.1
20201026130559 53 294 3.0 9.0 0.00 0.01 0.01 77 1000.2
20201026130219 53 194 2.0 8.0 0.00 0.01 0.01 77 1000.3
20201026125559 54 182 3.0 9.0 0.00 0.01 0.01 75 1000.2
20201026125114 54 0 1.0 11.0 0.00 0.01 0.01 76 1000.2
20201026124650 53 177 2.0 11.0 0.00 0.01 0.01 76 1000.2
20201026124057 53 194 3.0 9.0 0.00 0.01 0.01 76 1000.3
20201026123558 53 189 3.0 14.0 0.00 0.01 0.01 76 1000.3
20201026123138 53 167 4.0 14.0 0.00 0.01 0.01 77 1000.4
20201026122601 53 240 3.0 11.0 0.00 0.01 0.01 78 1000.3
20201026122110 53 192 3.0 11.0 0.00 0.01 0.01 79 1000.3
20201026121829 52 193 2.0 6.0 0.00 0.01 0.01 79 1000.3
20201026121100 52 0 2.0 10.0 0.00 0.01 0.01 80 1000.2
20201026120558 52 215 3.0 10.0 0.00 0.01 0.01 79 1000.4
20201026120126 52 0 1.0 7.0 0.00 0.01 0.01 80 1000.4
20201026115626 52 151 2.0 7.0 0.00 0.04 0.01 80 1000.4
20201026115110 51 208 1.0 6.0 0.00 0.04 0.01 81 1000.4
20201026114710 51 175 2.0 8.0 0.00 0.04 0.01 80 1000.4
20201026114104 51 313 2.0 11.0 0.00 0.04 0.01 79 1000.4
20201026113600 52 323 3.0 11.0 0.00 0.04 0.01 78 1000.5
20201026113221 52 196 3.0 10.0 0.00 0.04 0.01 78 1000.4
20201026112603 52 324 2.0 10.0 0.00 0.04 0.01 77 1000.4
20201026112104 52 200 3.0 10.0 0.00 0.04 0.01 78 1000.3
20201026111838 52 187 2.0 10.0 0.00 0.04 0.01 78 1000.4
20201026111111 52 289 2.0 9.0 0.00 0.04 0.01 78 1000.4
20201026110602 51 273 3.0 12.0 0.00 0.04 0.01 78 1000.3
20201026110153 51 323 2.0 12.0 0.00 0.04 0.01 79 1000.4
20201026105614 50 140 3.0 12.0 0.00 0.04 0.01 78 1000.5
20201026105155 50 150 2.0 10.0 0.00 0.04 0.01 79 1000.5
20201026104738 50 288 3.0 11.0 0.00 0.04 0.01 80 1000.5
20201026104103 50 207 3.0 11.0 0.00 0.04 0.01 81 1000.5
20201026103557 50 271 2.0 10.0 0.00 0.04 0.01 82 1000.6
20201026103122 50 196 2.0 9.0 0.00 0.04 0.01 82 1000.5
20201026102600 50 344 2.0 9.0 0.00 0.04 0.01 83 1000.5
20201026102059 50 151 1.0 5.0 0.00 0.04 0.01 84 1000.5
20201026101737 50 197 1.0 13.0 0.00 0.04 0.01 83 1000.5
20201026101057 50 185 4.0 13.0 0.00 0.04 0.01 83 1000.5
20201026100557 50 171 3.0 9.0 0.00 0.04 0.01 83 1000.6
20201026100314 50 196 3.0 9.0 0.00 0.04 0.01 83 1000.5
20201026095604 50 225 2.0 9.0 0.00 0.04 0.01 84 1000.5
20201026095059 50 173 2.0 8.0 0.00 0.04 0.01 84 1000.6
20201026094629 50 0 2.0 9.0 0.00 0.04 0.01 86 1000.6
20201026094107 50 188 3.0 10.0 0.00 0.04 0.01 84 1000.6
20201026093607 50 165 4.0 13.0 0.00 0.04 0.01 84 1000.5
20201026093228 50 29 5.0 13.0 0.00 0.04 0.01 85 1000.5
20201026092610 50 276 3.0 11.0 0.00 0.04 0.01 86 1000.4
20201026092057 50 189 3.0 10.0 0.00 0.04 0.01 86 1000.4
20201026091703 49 179 3.0 10.0 0.00 0.04 0.01 87 1000.3
20201026091105 49 265 3.0 9.0 0.00 0.04 0.01 87 1000.4
20201026090558 49 195 2.0 12.0 0.00 0.04 0.01 88 1000.3
20201026090202 49 249 3.0 12.0 0.00 0.04 0.01 88 1000.2
20201026085558 49 113 4.0 11.0 0.00 0.04 0.01 88 1000.0
20201026085056 49 0 2.0 7.0 0.00 0.04 0.01 88 1000.0
20201026084716 49 200 2.0 9.0 0.00 0.04 0.01 89 999.9
20201026084058 48 195 2.0 9.0 0.00 0.04 0.01 90 1000.0
20201026083618 48 173 2.0 10.0 0.00 0.04 0.01 90 1000.0
20201026083249 48 169 2.0 10.0 0.00 0.04 0.01 91 1000.2
20201026082614 48 175 3.0 10.0 0.00 0.04 0.01 91 1000.3
20201026082057 48 169 2.0 5.0 0.00 0.04 0.01 92 1000.3
20201026081734 48 178 1.0 5.0 0.00 0.04 0.01 92 1000.3
20201026081109 48 194 2.0 8.0 0.00 0.04 0.01 92 1000.3
20201026080600 47 181 2.0 8.0 0.00 0.04 0.01 92 1000.4
20201026080230 47 200 1.0 8.0 0.00 0.04 0.01 93 1000.4
20201026075606 47 234 3.0 8.0 0.00 0.05 0.01 93 1000.3
20201026075111 47 163 1.0 10.0 0.00 0.05 0.01 93 1000.3
20201026074613 47 190 1.0 10.0 0.00 0.05 0.01 93 1000.3
20201026074057 47 169 3.0 7.0 0.00 0.05 0.01 93 1000.2
20201026073608 47 173 3.0 8.0 0.00 0.05 0.01 93 1000.3
20201026073224 47 207 2.0 8.0 0.00 0.05 0.01 93 1000.4
20201026072558 47 191 2.0 9.0 0.00 0.05 0.01 94 1000.4
20201026072059 47 0 2.0 11.0 0.00 0.05 0.01 94 1000.5
20201026071802 47 305 3.0 11.0 0.00 0.05 0.01 94 1000.6
20201026071101 47 208 2.0 6.0 0.00 0.05 0.01 94 1000.6
20201026070556 47 122 2.0 6.0 0.00 0.05 0.01 94 1000.6
20201026070150 47 265 0.0 5.0 0.00 0.05 0.01 94 1000.3
20201026065609 47 211 1.0 5.0 0.00 0.10 0.01 94 1000.3
20201026065059 47 199 2.0 6.0 0.00 0.10 0.01 94 1000.3
20201026064616 47 197 3.0 6.0 0.00 0.10 0.01 94 1000.1
20201026064056 47 217 0.0 6.0 0.00 0.10 0.01 94 999.8
20201026063606 47 186 1.0 5.0 0.00 0.10 0.01 94 999.7
20201026063130 47 158 1.0 5.0 0.00 0.10 0.01 94 999.8
20201026062555 47 182 1.0 5.0 0.00 0.10 0.01 94 1000.1
20201026062055 48 194 2.0 6.0 0.00 0.10 0.01 94 1000.0
20201026061719 48 186 1.0 6.0 0.00 0.10 0.01 94 999.8
20201026061056 48 210 1.0 7.0 0.00 0.10 0.01 94 999.7
20201026060608 48 212 2.0 7.0 0.00 0.10 0.01 94 999.8
20201026060138 48 201 1.0 6.0 0.00 0.10 0.01 94 999.6
20201026055557 48 154 1.0 6.0 0.00 0.12 0.01 94 999.6
20201026055056 48 182 2.0 6.0 0.00 0.12 0.01 94 999.5
20201026054628 48 210 1.0 5.0 0.00 0.12 0.01 94 999.3
20201026054106 48 184 1.0 6.0 0.00 0.12 0.01 94 999.2
20201026053607 48 0 1.0 7.0 0.00 0.12 0.01 94 999.3
20201026053115 48 0 2.0 7.0 0.00 0.12 0.01 94 999.3
20201026052556 48 204 1.0 7.0 0.00 0.12 0.01 94 999.3
20201026052058 48 172 1.0 7.0 0.00 0.12 0.01 94 999.6
20201026051658 48 296 1.0 6.0 0.00 0.12 0.01 94 999.6
20201026051125 48 194 2.0 7.0 0.00 0.12 0.01 94 999.6
20201026050644 48 142 1.0 8.0 0.00 0.12 0.01 94 999.7
20201026050117 48 194 2.0 8.0 0.00 0.12 0.01 94 999.7
20201026045555 48 309 1.0 10.0 0.00 0.12 0.01 95 999.8
20201026045101 48 204 2.0 10.0 0.00 0.12 0.01 94 999.8
20201026044702 48 172 2.0 8.0 0.00 0.12 0.01 95 999.8
20201026044105 48 56 1.0 5.0 0.00 0.12 0.01 95 999.8
20201026043606 48 188 2.0 7.0 0.00 0.12 0.01 95 999.7
20201026043139 48 194 2.0 7.0 0.00 0.12 0.01 95 999.7
20201026042558 48 194 2.0 6.0 0.00 0.12 0.01 95 999.6
20201026042058 48 187 2.0 6.0 0.00 0.12 0.01 95 999.7
20201026041726 48 282 1.0 7.0 0.00 0.12 0.01 95 1000.0
20201026041058 48 190 2.0 7.0 0.00 0.12 0.01 95 999.9
20201026040623 48 185 2.0 7.0 0.00 0.12 0.01 96 999.8
20201026040337 48 0 2.0 5.0 0.00 0.12 0.01 96 999.8
20201026035556 48 207 1.0 5.0 0.00 0.12 0.01 96 999.9
20201026035059 48 178 2.0 4.0 0.00 0.12 0.01 95 999.9
20201026034649 48 180 1.0 4.0 0.00 0.12 0.01 96 999.8
20201026034056 48 316 1.0 5.0 0.00 0.12 0.01 96 999.8
20201026033556 48 197 2.0 6.0 0.00 0.12 0.01 96 999.7
20201026033206 48 211 2.0 6.0 0.00 0.12 0.01 96 999.8
20201026032558 48 203 1.0 6.0 0.00 0.12 0.01 96 999.9
20201026032116 48 182 1.0 6.0 0.00 0.12 0.01 96 1000.0
20201026031617 48 192 1.0 7.0 0.00 0.12 0.01 96 999.8
20201026031059 48 205 2.0 7.0 0.00 0.12 0.01 96 999.8
20201026030616 48 177 1.0 6.0 0.00 0.12 0.01 96 999.8
20201026030151 48 151 1.0 6.0 0.00 0.12 0.01 96 999.6
20201026025600 48 204 2.0 8.0 0.00 0.12 0.01 96 999.6
20201026025055 48 179 2.0 8.0 0.00 0.12 0.01 96 999.5
20201026024637 48 169 2.0 7.0 0.00 0.12 0.01 96 999.5
20201026024059 48 181 1.0 6.0 0.00 0.12 0.01 96 999.5
20201026023556 48 225 1.0 6.0 0.00 0.12 0.01 96 999.7
20201026023255 48 197 1.0 5.0 0.00 0.12 0.01 96 999.8
20201026022556 48 177 2.0 6.0 0.00 0.12 0.01 96 999.7
20201026022109 48 254 1.0 6.0 0.00 0.12 0.01 97 999.5
20201026021747 48 201 2.0 6.0 0.00 0.12 0.01 97 999.7
20201026021056 48 196 1.0 5.0 0.00 0.12 0.01 97 999.7
20201026020556 48 202 1.0 5.0 0.00 0.12 0.01 97 999.8
20201026020259 48 197 0.0 9.0 0.00 0.12 0.01 97 999.7
20201026015607 48 199 1.0 9.0 0.00 0.12 0.01 97 999.5
20201026015055 48 165 2.0 7.0 0.00 0.12 0.01 97 999.8
20201026014622 48 205 2.0 5.0 0.00 0.12 0.01 96 999.8
20201026014055 48 187 1.0 4.0 0.00 0.12 0.01 96 999.7
20201026013555 48 178 1.0 4.0 0.00 0.12 0.01 96 999.7
20201026013139 48 202 0.0 4.0 0.00 0.12 0.01 96 999.7
20201026012554 48 0 1.0 6.0 0.00 0.12 0.01 96 999.8
20201026012056 48 199 0.0 6.0 0.00 0.12 0.01 96 999.8
20201026011652 48 178 1.0 4.0 0.00 0.12 0.01 96 1000.0
20201026011115 48 195 1.0 3.0 0.00 0.12 0.01 96 999.9
20201026010559 48 0 0.0 4.0 0.00 0.12 0.01 96 999.8
20201026010410 48 0 1.0 4.0 0.00 0.12 0.01 96 1000.0
20201026005608 48 184 0.0 3.0 0.00 0.12 0.01 95 1000.1
20201026005106 49 195 1.0 3.0 0.00 0.12 0.01 95 1000.1
20201026004646 49 0 0.0 4.0 0.00 0.12 0.01 95 1000.1
20201026004136 49 0 1.0 4.0 0.00 0.12 0.01 95 1000.0
20201026003621 49 213 0.0 6.0 0.00 0.12 0.01 95 1000.1
20201026003107 49 200 1.0 6.0 0.00 0.12 0.01 95 1000.4
20201026002614 49 178 2.0 6.0 0.00 0.12 0.01 95 1000.3
20201026002100 49 0 0.0 6.0 0.00 0.12 0.01 95 1000.1
20201026001659 49 0 1.0 6.0 0.00 0.12 0.01 95 1000.1
20201026001101 49 0 1.0 6.0 0.01 0.12 0.01 95 1000.2
20201026000615 49 202 2.0 6.0 0.01 0.12 0.01 95 1000.3
20201026000218 49 202 0.0 5.0 0.01 0.12 0.01 95 1000.3
20201025235612 49 190 1.0 5.0 0.01 0.12 0.01 95 1000.5
20201025235128 49 169 2.0 5.0 0.01 0.12 0.01 95 1000.5
20201025234649 50 186 1.0 6.0 0.01 0.12 0.01 95 1000.4
20201025234057 50 180 2.0 6.0 0.01 0.12 0.01 95 1000.4
20201025233559 50 174 1.0 7.0 0.00 0.11 0.00 95 1000.5
20201025233145 50 185 1.0 7.0 0.00 0.11 0.00 95 1000.5
20201025232558 50 188 1.0 7.0 0.00 0.11 0.00 95 1000.6
20201025232102 50 176 2.0 7.0 0.00 0.11 0.00 95 1000.7
20201025231631 50 238 2.0 7.0 0.00 0.11 0.00 95 1000.7
20201025231109 50 178 3.0 8.0 0.00 0.11 0.00 95 1000.8
20201025230624 50 194 2.0 8.0 0.00 0.11 0.00 95 1000.8
20201025230129 50 186 2.0 8.0 0.00 0.11 0.00 95 1000.8
20201025225602 50 195 2.0 8.0 0.00 0.11 0.11 95 1000.7
20201025225100 50 250 1.0 7.0 0.00 0.11 0.11 95 1000.7
20201025224757 49 201 2.0 7.0 0.00 0.11 0.11 95 1000.5
20201025224108 49 179 1.0 4.0 0.00 0.11 0.11 95 1000.5
20201025223614 49 181 1.0 6.0 0.00 0.11 0.11 95 1000.5